Flag for Pakistan Weather past 2 weeks in Narowal, Pakistan

Now
93 °F

Haze.


Feels Like: 101 °F
Forecast: 76 / 98 °F
Wind: 5 mph from South

Location: Amritsar Airport

Current Time: Sep 3, 2015 at 2:48:00 PM

Latest Report: Sep 3, 2015 at 2:00 PM


Visibility: 3 mi

Pressure: 29.71 "Hg

Humidity: 49%

Dew point: 72 °F

Location of NarowalLocation

Historic Weather in Narowal — Graph

°F

Narowal temperature yesterday

Maximum temperature yesterday: 99 °F (at 2:00 PM)
Minimum temperature yesterday: 81 °F (at 3:30 AM)
Average temperature yesterday: 87 °F

Past Weeks' High & Low Weather Summary

 TemperatureHumidityPressure
High99 °F (Sep 2, 2:00 PM)100% (Aug 19, 7:30 PM)29.77 "Hg (Aug 19, 7:30 PM)
Low75 °F (Aug 21, 4:30 PM)44% (Aug 29, 1:00 PM)29.53 "Hg (Aug 20, 4:30 PM)
Average86 °F80%29.61 "Hg
* Reported Aug 19 1:00 PM — Sep 3 1:00 PM, Narowal, Weather by CustomWeather, © 2015

Note: Actual official high and low records may vary slightly from our data, if they occured in-between our weather recording intervals... More about our weather records

Advertising

Narowal weather history for previous 24 hours

 ConditionsComfort  
Time TempWeatherWind HumidityBarometerVisibility
1:00 PM
Thu, Sep 3
93 °FHaze.7 mph56%29.71 "Hg3 mi
11:30 AM91 °FHaze.No wind67%29.74 "Hg3 mi
11:00 AM88 °FHaze.3 mph75%29.74 "Hg3 mi
10:30 AM88 °FScattered clouds.5 mph75%29.74 "Hg3 mi
10:00 AM88 °FScattered clouds.8 mph75%29.74 "Hg3 mi
9:30 AM86 °FFog.5 mph79%29.77 "Hg3 mi
9:00 AM84 °FFog.8 mph84%29.77 "Hg3 mi
8:30 AM84 °FFog.7 mph79%29.74 "Hg2 mi
7:30 AM82 °FFog.No wind89%29.71 "Hg1 mi
7:00 AM81 °FFog.No wind94%29.68 "Hg1 mi
6:30 AM79 °FFog.No wind94%29.68 "Hg1 mi
6:00 AM79 °FFog.1 mph100%29.68 "Hg1 mi
5:30 AM79 °FFog.5 mph100%29.68 "Hg1 mi
5:00 AM79 °FFog.No wind100%29.65 "Hg1 mi
4:30 AM81 °FFog.No wind94%29.65 "Hg1 mi
4:00 AM79 °FFog.No wind94%29.65 "Hg1 mi
3:30 AM81 °FFog.No wind89%29.65 "Hg1 mi
2:00 AM81 °FFog.No wind89%29.62 "Hg1 mi
1:30 AM81 °FFog.No wind89%29.62 "Hg1 mi
1:00 AM81 °FFog.No wind89%29.65 "Hg1 mi
12:30 AM81 °FFog.No wind89%29.65 "Hg1 mi
11:30 PM
Wed, Sep 2
84 °FFog.No wind74%29.62 "Hg1 mi
11:00 PM84 °FFog.No wind74%29.62 "Hg1 mi
10:30 PM84 °FFog.No wind79%29.62 "Hg1 mi
10:00 PM84 °FFog.No wind79%29.62 "Hg1 mi
9:30 PM84 °FFog.No wind84%29.62 "Hg1 mi
9:00 PM86 °FFog.No wind84%29.62 "Hg1 mi
8:30 PM86 °FFog.No wind89%29.59 "Hg1 mi
8:00 PM86 °FFog.No wind89%29.59 "Hg1 mi
7:30 PM86 °FHaze.No wind84%29.59 "Hg1 mi
7:00 PM86 °FHaze.No wind84%29.56 "Hg1 mi
6:30 PM88 °FHaze.No wind79%29.56 "Hg2 mi
6:00 PM90 °FHaze.No wind71%29.56 "Hg2 mi
5:30 PM90 °FHaze.No wind75%29.56 "Hg2 mi
5:00 PM91 °FHaze.No wind67%29.56 "Hg2 mi
4:30 PM93 °FScattered clouds.2 mph59%29.56 "Hg2 mi
4:00 PM93 °FScattered clouds.2 mph59%29.56 "Hg3 mi
3:00 PM93 °FScattered clouds.8 mph59%29.56 "Hg3 mi
2:30 PM95 °FScattered clouds.1 mph56%29.56 "Hg3 mi
2:00 PM99 °FScattered clouds.No wind47%29.59 "Hg3 mi
Weather by CustomWeather, © 2015

See weather overviewHow to use our weather pages